TOURFACTS.DK  
Stats and Facts from Tour de France.

Tour de France 2018 starts in 225 days
  Riders   Stages   Teams   Summits   Yearly  


 
Search by year

 2017 - St. 21:  14824 starters.
  5131 different riders.
  634 teams.
  2232 stages.
  454 restdays.
  439589.60 km.
  5653 abandonnees.


Top 3
Christopher Froome86:20:55
Rigoberto Uran86:21:49
Romain Bardet86:23:15
Warren Barguil169 pt.
Primoz Roglic80 pt.
Thomas De Gendt64 pt.
Michael Matthews359 pt.
André Greipel234 pt.
Edvald Boasson Hagen220 pt.
Simon Yates86:27:09
Louis Meintjes86:29:15
Emanuel Buchmann86:54:16
Facts from Tour de France 2016
  |   Stages.  |   Stage winners.  |   Days in yellow  |   Average speed.  |   Route.  |   Teams.  |   All riders.  |   Rookies.  |   Withdrawls.  |  

  |   GC.  |   Polka  |   Green  |   White  |   Summits. (In tour)  |   Summits. (Points)  |   Miscellaneous.  |  

Stage 12 on 14 - 07 - 2016
         Owning:    Christopher Froome      Thomas De Gendt      Peter Sagan      Adam Yates  

Pick a stage:  1 2 3 4 5 6 7 8 9 10 11 12 13 14 15 16 17 18 19 20 21
  MontpellierMont Ventoux | Dist: 184.00 km.
Cat: 4Côte de GordesBELThomas De Gendt
1 point
 
Cat: 3Col des Trois TermesBELThomas De Gendt
2 points
 
Cat: HMont VentouxBELThomas De Gendt
50 points
 

Average speed for all riders in stage:  37,791 km./hr.
    Place:Name:Team:Time:Km/h:
BELThomas De GendtBELLotto Soudal04:31:51  +  00:00:00=40,611 
BELSerge PauwelsZAFDimension Data04:31:53  +  00:00:02=40,606 
ESPDaniel NavarroFRACofidis – Solutions Crédits04:32:05  +  00:00:14=40,576 
4 NEDStef ClementCHEIAM Cycling04:32:31  +  00:00:40=40,511 
5 FRASylvain ChavanelFRADirect Energie04:32:31  +  00:00:40=40,511 
6 NEDBert-Jan LindemanNLDTeam Lotto NL - Jumbo04:34:43  +  00:02:52=40,187 
7 ERIDaniel TeklehaimanotZAFDimension Data04:35:04  +  00:03:13=40,136 
8 BELSep VanmarckeNLDTeam Lotto NL - Jumbo04:35:17  +  00:03:26=40,104 
9 DENChris Anker SørensenFRAFortuneo - Vital Concept04:36:14  +  00:04:23=39,966 
10 NEDBauke MollemaUSATrek – Segafredo04:36:56  +  00:05:05=39,865 
11 AUSRichie PorteUSABMC Racing Team04:36:56  +  00:05:05=39,865 
12 ENGAdam YatesAUSORICA BikeExchange04:37:15  +  00:05:24=39,820 
13 ITAFabio AruKAZAstana Pro Team04:37:15  +  00:05:24=39,820 
14 RSALouis MeintjesITALampre-Merida04:37:15  +  00:05:24=39,820 
15 FRARomain BardetFRAAg2r La Mondiale04:37:15  +  00:05:24=39,820 
16 ESPJoaquim RodriguezRUSTeam Katusha04:37:15  +  00:05:24=39,820 
17 ESPAlejandro ValverdeESPMovistar Team04:37:15  +  00:05:24=39,820 
18 COLNairo QuintanaESPMovistar Team04:37:15  +  00:05:24=39,820 
19 USATejay Van GarderenUSABMC Racing Team04:37:15  +  00:05:24=39,820 
20 ENGDaniel MartinBELEtixx - Quick Step04:38:21  +  00:06:30=39,662 
21 SUISébastien ReichenbachFRAFDJ04:38:21  +  00:06:30=39,662 
22 FRAWarren BarguilDEUTeam Giant Alpecin04:38:21  +  00:06:30=39,662 
23 ESPDaniel MorenoESPMovistar Team04:38:21  +  00:06:30=39,662 
24 COLSergio Luis HenaoGBRSky Procycling04:38:36  +  00:06:45=39,627 
25 KENChristopher FroomeGBRSky Procycling04:38:36  +  00:06:45=39,627 
26 CZERoman KreuzigerRUSTinkoff04:38:42  +  00:06:51=39,612 
27 FRAPierre RollandUSATeam Cannondale Drapac04:39:15  +  00:07:24=39,534 
28 WALGeraint ThomasGBRSky Procycling04:39:15  +  00:07:24=39,534 
29 RUSIlnur ZakarinRUSTeam Katusha04:39:15  +  00:07:24=39,534 
30 NEDWout PoelsGBRSky Procycling04:39:18  +  00:07:27=39,527 
31 ESPMikel NieveGBRSky Procycling04:39:45  +  00:07:54=39,464 
32 BELIljo KeisseBELEtixx - Quick Step04:39:45  +  00:07:54=39,464 
33 GERAndré GreipelBELLotto Soudal04:41:21  +  00:09:30=39,239 
34 ESPHaimar ZubeldiaUSATrek – Segafredo04:41:21  +  00:09:30=39,239 
35 ITADamiano CarusoUSABMC Racing Team04:41:21  +  00:09:30=39,239 
36 FRAAlexis VuillermozFRAAg2r La Mondiale04:41:21  +  00:09:30=39,239 
37 GEREmanuel BuchmannDEUBora-Argon 1804:41:21  +  00:09:30=39,239 
38 ESPLuis Angel MateFRACofidis – Solutions Crédits04:41:21  +  00:09:30=39,239 
39 URSTanel KangertKAZAstana Pro Team04:41:21  +  00:09:30=39,239 
40 COLJarlinson Pantano GomezCHEIAM Cycling04:41:21  +  00:09:30=39,239 
41 FRAFlorian VachonFRAFortuneo - Vital Concept04:41:21  +  00:09:30=39,239 
42 AUSAdam HansenBELLotto Soudal04:41:21  +  00:09:30=39,239 
43 SUIMartin ElmigerCHEIAM Cycling04:41:21  +  00:09:30=39,239 
44 ETHTsgabu Gebremaryan GrmayITALampre-Merida04:41:21  +  00:09:30=39,239 
45 POLBartosz HuzarskiDEUBora-Argon 1804:41:21  +  00:09:30=39,239 
46 FRACyril LemoineFRACofidis – Solutions Crédits04:41:56  +  00:10:05=39,158 
47 LUXFränk SchleckUSATrek – Segafredo04:43:32  +  00:11:41=38,937 
48 FRAAnthony DelaplaceFRAFortuneo - Vital Concept04:44:04  +  00:12:13=38,864 
49 ESPMikel Landa MeanaGBRSky Procycling04:44:20  +  00:12:29=38,828 
50 AUTPatrick KonradDEUBora-Argon 1804:45:31  +  00:13:40=38,667 
51 FRAJérémy RoyFRAFDJ04:46:02  +  00:14:11=38,597 
52 FRAAmaël MoinardUSABMC Racing Team04:46:02  +  00:14:11=38,597 
53 BELJan BakelantsFRAAg2r La Mondiale04:47:16  +  00:15:25=38,431 
54 ITAPaolo TiralongoKAZAstana Pro Team04:47:18  +  00:15:27=38,427 
55 ESPLuis León SánchezKAZAstana Pro Team04:47:18  +  00:15:27=38,427 
56 FRAMickaël CherelFRAAg2r La Mondiale04:48:18  +  00:16:27=38,293 
57 RSADaryl ImpeyAUSORICA BikeExchange04:50:23  +  00:18:32=38,019 
58 ESPRubén PlazaAUSORICA BikeExchange04:50:23  +  00:18:32=38,019 
59 FRAAnthony RouxFRAFDJ04:51:35  +  00:19:44=37,862 
60 LUXBen GastauerFRAAg2r La Mondiale04:51:35  +  00:19:44=37,862 
61 FRACyril GautierFRAAg2r La Mondiale04:51:35  +  00:19:44=37,862 
62 USAPeter StetinaUSATrek – Segafredo04:51:35  +  00:19:44=37,862 
63 SUIMichael SchärUSABMC Racing Team04:53:17  +  00:21:26=37,643 
64 BELJasper StuyvenUSATrek – Segafredo04:53:17  +  00:21:26=37,643 
65 BELJulien VermoteBELEtixx - Quick Step04:53:17  +  00:21:26=37,643 
66 GERMarcus BurghardtUSABMC Racing Team04:53:17  +  00:21:26=37,643 
67 NEDDylan Van BaarleUSATeam Cannondale Drapac04:53:17  +  00:21:26=37,643 
68 CANAntoine DuchesneFRADirect Energie04:53:17  +  00:21:26=37,643 
69 SUIJakob FuglsangKAZAstana Pro Team04:53:17  +  00:21:26=37,643 
70 FRAGeoffrey SoupeFRACofidis – Solutions Crédits04:53:17  +  00:21:26=37,643 
71 ESPAlberto LosadaRUSTeam Katusha04:53:17  +  00:21:26=37,643 
72 FRAPierre-Luc PérichonFRAFortuneo - Vital Concept04:53:17  +  00:21:26=37,643 
73 NEDTom DumoulinDEUTeam Giant Alpecin04:53:17  +  00:21:26=37,643 
74 BELEdward TheunsUSATrek – Segafredo04:53:17  +  00:21:26=37,643 
75 BELOliver NaesenCHEIAM Cycling04:53:17  +  00:21:26=37,643 
76 BELGreg Van AvermaetUSABMC Racing Team04:53:17  +  00:21:26=37,643 
77 CZEPetr VakocBELEtixx - Quick Step04:53:17  +  00:21:26=37,643 
78 ITAMatteo BonoITALampre-Merida04:53:17  +  00:21:26=37,643 
79 HRVKristijan DurasekITALampre-Merida04:53:17  +  00:21:26=37,643 
80 AUTGeorg PreidlerDEUTeam Giant Alpecin04:53:17  +  00:21:26=37,643 
81 GERPaul VossDEUBora-Argon 1804:53:17  +  00:21:26=37,643 
82 RSAReinardt Janse Van RensburgZAFDimension Data04:53:17  +  00:21:26=37,643 
83 KAZAlexey LutsenkoKAZAstana Pro Team04:55:28  +  00:23:37=37,365 
84 UKRAndriy GrivkoKAZAstana Pro Team04:55:28  +  00:23:37=37,365 
85 ESPJesus HerradaESPMovistar Team04:55:28  +  00:23:37=37,365 
86 ESPMarkel IrizarUSATrek – Segafredo04:55:28  +  00:23:37=37,365 
87 PORNelson OliveiraESPMovistar Team04:55:28  +  00:23:37=37,365 
88 URSRamunas NavardauskasUSATeam Cannondale Drapac04:55:28  +  00:23:37=37,365 
89 SUIFabian CancellaraUSATrek – Segafredo04:55:28  +  00:23:37=37,365 
90 DENMichael ValgrenRUSTinkoff04:55:28  +  00:23:37=37,365 
91 ESPImanol ErvitiESPMovistar Team04:55:28  +  00:23:37=37,365 
92 BLRVasil KiryienkaGBRSky Procycling04:55:28  +  00:23:37=37,365 
93 FRABryan CoquardFRADirect Energie04:55:28  +  00:23:37=37,365 
94 SLOBorut BozicFRACofidis – Solutions Crédits04:55:28  +  00:23:37=37,365 
95 FRAJulian AlaphilippeBELEtixx - Quick Step04:55:28  +  00:23:37=37,365 
96 AUSLuke DurbridgeAUSORICA BikeExchange04:55:28  +  00:23:37=37,365 
97 DENMatti BreschelUSATeam Cannondale Drapac04:55:28  +  00:23:37=37,365 
98 FRABrice FeilluFRAFortuneo - Vital Concept04:56:32  +  00:24:41=37,230 
99 HRVRobert KiserlovskiRUSTinkoff04:57:16  +  00:25:25=37,138 
100 ITADiego RosaKAZAstana Pro Team04:57:16  +  00:25:25=37,138 
101 POLRafal MajkaRUSTinkoff04:57:16  +  00:25:25=37,138 
102 SUIReto HollensteinCHEIAM Cycling04:57:16  +  00:25:25=37,138 
103 ITAVincenzo NibaliKAZAstana Pro Team04:57:16  +  00:25:25=37,138 
104 FRAThomas VoecklerFRADirect Energie04:57:16  +  00:25:25=37,138 
105 NEDTimo RoosenNLDTeam Lotto NL - Jumbo04:57:16  +  00:25:25=37,138 
106 ESPAngel ViciosoRUSTeam Katusha04:57:16  +  00:25:25=37,138 
107 ITADomenico PozzovivoFRAAg2r La Mondiale04:57:16  +  00:25:25=37,138 
108 FRAFabrice JeandesbozFRADirect Energie04:57:16  +  00:25:25=37,138 
109 NEDWilco KeldermanNLDTeam Lotto NL - Jumbo04:57:16  +  00:25:25=37,138 
110 NEDTom-Jelte SlagterUSATeam Cannondale Drapac04:57:16  +  00:25:25=37,138 
111 FRARomain SicardFRADirect Energie04:57:16  +  00:25:25=37,138 
112 SLOLuka PibernikITALampre-Merida04:57:16  +  00:25:25=37,138 
113 COLWinner AnaconaESPMovistar Team04:57:16  +  00:25:25=37,138 
114 FRAArnold JeannessonFRACofidis – Solutions Crédits04:57:16  +  00:25:25=37,138 
115 GERPaul MartensNLDTeam Lotto NL - Jumbo04:57:16  +  00:25:25=37,138 
116 SUIGregory RastUSATrek – Segafredo04:57:16  +  00:25:25=37,138 
117 AUSMathew HaymanAUSORICA BikeExchange04:57:16  +  00:25:25=37,138 
118 FRAArthur VichotFRAFDJ04:57:16  +  00:25:25=37,138 
119 NZLGregory HendersonBELLotto Soudal04:57:16  +  00:25:25=37,138 
120 BELJens DebusschereBELLotto Soudal04:57:16  +  00:25:25=37,138 
121 GERTony MartinBELEtixx - Quick Step04:57:16  +  00:25:25=37,138 
122 NZLGeorge BennettNLDTeam Lotto NL - Jumbo04:57:16  +  00:25:25=37,138 
123 USABrent BookwalterUSABMC Racing Team04:57:16  +  00:25:25=37,138 
124 CZEJan BártaDEUBora-Argon 1804:57:16  +  00:25:25=37,138 
125 FRAJérôme CoppelCHEIAM Cycling04:57:16  +  00:25:25=37,138 
126 SUISteve MorabitoFRAFDJ04:57:16  +  00:25:25=37,138 
127 FRATony GallopinBELLotto Soudal04:57:16  +  00:25:25=37,138 
128 ARGEduardo SepulvedaFRAFortuneo - Vital Concept04:57:16  +  00:25:25=37,138 
129 SUIMathias FrankCHEIAM Cycling04:57:16  +  00:25:25=37,138 
130 FRA Alexis GougeardFRAAg2r La Mondiale04:57:16  +  00:25:25=37,138 
131 PORRui CostaITALampre-Merida04:57:16  +  00:25:25=37,138 
132 ENGStephen CummingsZAFDimension Data04:57:16  +  00:25:25=37,138 
133 AUTMarco HallerRUSTeam Katusha04:57:16  +  00:25:25=37,138 
134 FRAJérôme CousinFRACofidis – Solutions Crédits04:57:16  +  00:25:25=37,138 
135 IRLChristopher Juul JensenAUSORICA BikeExchange04:57:16  +  00:25:25=37,138 
136 USALawson CraddockUSATeam Cannondale Drapac04:57:48  +  00:25:57=37,072 
137 AUSRohan DennisUSABMC Racing Team04:57:48  +  00:25:57=37,072 
138 WALLuke RoweGBRSky Procycling04:57:48  +  00:25:57=37,072 
139 FRAChristophe LaporteFRACofidis – Solutions Crédits04:57:54  +  00:26:03=37,059 
140 ESPGorka Izaguirre InsaustiESPMovistar Team04:59:40  +  00:27:49=36,841 
141 ESPJon Izaguirre InsaustiESPMovistar Team04:59:40  +  00:27:49=36,841 
142 SVKPeter SaganRUSTinkoff04:59:51  +  00:28:00=36,818 
143 IOMMark CavendishZAFDimension Data04:59:55  +  00:28:04=36,810 
144 AUSLeigh HowardCHEIAM Cycling05:00:15  +  00:28:24=36,769 
145 SLOKristjan KorenUSATeam Cannondale Drapac05:00:15  +  00:28:24=36,769 
146 ITAMatteo TosattoRUSTinkoff05:00:15  +  00:28:24=36,769 
147 AUTBernhard EiselZAFDimension Data05:00:15  +  00:28:24=36,769 
148 ITAOscar GattoRUSTinkoff05:00:15  +  00:28:24=36,769 
149 GERMarcel SiebergBELLotto Soudal05:00:15  +  00:28:24=36,769 
150 NEDRoy CurversDEUTeam Giant Alpecin05:00:15  +  00:28:24=36,769 
151 SLOJan PolancITALampre-Merida05:00:15  +  00:28:24=36,769 
152 ITACesare BenedettiDEUBora-Argon 1805:00:15  +  00:28:24=36,769 
153 NORSondre Holst EngerCHEIAM Cycling05:00:15  +  00:28:24=36,769 
154 FRANicolas EdetFRACofidis – Solutions Crédits05:00:15  +  00:28:24=36,769 
155 GERAndreas SchillingerDEUBora-Argon 1805:00:15  +  00:28:24=36,769 
156 GERRobert WagnerNLDTeam Lotto NL - Jumbo05:00:15  +  00:28:24=36,769 
157 FRAThibaut PinotFRAFDJ05:00:15  +  00:28:24=36,769 
158 AUSSimon GerransAUSORICA BikeExchange05:00:15  +  00:28:24=36,769 
159 FRASamuel DumoulinFRAAg2r La Mondiale05:00:15  +  00:28:24=36,769 
160 NOREdvald Boasson HagenZAFDimension Data05:00:15  +  00:28:24=36,769 
161 FRAWilliam BonnetFRAFDJ05:00:15  +  00:28:24=36,769 
162 NEDRamon SinkeldamDEUTeam Giant Alpecin05:00:15  +  00:28:24=36,769 
163 FRAArmindo FonsecaFRAFortuneo - Vital Concept05:00:15  +  00:28:24=36,769 
164 NORAlexander KristoffRUSTeam Katusha05:00:15  +  00:28:24=36,769 
165 ERINatnael Teweldemedhin BerhaneZAFDimension Data05:00:15  +  00:28:24=36,769 
166 AUSMichael MatthewsAUSORICA BikeExchange05:00:15  +  00:28:24=36,769 
167 BELJürgen RoelandtsBELLotto Soudal05:00:15  +  00:28:24=36,769 
168 FRAAdrien PetitFRADirect Energie05:00:15  +  00:28:24=36,769 
169 NORVegard BreenFRAFortuneo - Vital Concept05:00:15  +  00:28:24=36,769 
170 POLMaciej BodnarRUSTinkoff05:00:15  +  00:28:24=36,769 
171 FRAYohann GèneFRADirect Energie05:00:15  +  00:28:24=36,769 
172 ITAJacopo GuarnieriRUSTeam Katusha05:00:15  +  00:28:24=36,769 
173 NEDDylan GroenewegenNLDTeam Lotto NL - Jumbo05:00:15  +  00:28:24=36,769 
174 BELSam BennettDEUBora-Argon 1805:00:15  +  00:28:24=36,769 
175 USAAlex HowesUSATeam Cannondale Drapac05:00:15  +  00:28:24=36,769 
176 NEDAlbert TimmerDEUTeam Giant Alpecin05:00:15  +  00:28:24=36,769 
177 SUIMichael AlbasiniAUSORICA BikeExchange05:00:15  +  00:28:24=36,769 
178 ENGDaniel McLayFRAFortuneo - Vital Concept05:00:15  +  00:28:24=36,769 
179 GERSimon GeschkeDEUTeam Giant Alpecin05:00:15  +  00:28:24=36,769 
180 DENLars BakBELLotto Soudal05:00:15  +  00:28:24=36,769 
181 BELMaarten WynantsNLDTeam Lotto NL - Jumbo05:00:15  +  00:28:24=36,769 
182 ENGIan StannardGBRSky Procycling05:00:15  +  00:28:24=36,769 
183 JPNYukiya ArashiroITALampre-Merida05:00:15  +  00:28:24=36,769 
184 NEDLaurens ten DamDEUTeam Giant Alpecin05:00:15  +  00:28:24=36,769 
185 GERJohn DegenkolbDEUTeam Giant Alpecin05:00:15  +  00:28:24=36,769 
186 ITAFabio SabatiniBELEtixx - Quick Step05:01:04  +  00:29:13=36,670 
187 GERMarcel KittelBELEtixx - Quick Step05:01:04  +  00:29:13=36,670 
188 BRAMaximilano RichezeBELEtixx - Quick Step05:01:04  +  00:29:13=36,670 
189 ITADavide CimolaiITALampre-Merida05:01:04  +  00:29:13=36,670 
190 NZLShane ArchboldDEUBora-Argon 1805:01:04  +  00:29:13=36,670 

Withdrawls: 2
 
Rider
Team
Reason
147  BELJurgen Van Den BroeckRUSTeam KatushaDid not start
178  FRAAngelo TulikFRADirect EnergieDid not finish

Todays birthdays.

1873  Charles Perraud
1890  Marcel Perriere
1896  Arthur Targez
1903  François Menta
1911  Emil Kijewski
1937  Rudolf Hauser
1942  Johny Schleck
1943  Mario Anni
1947  Fernando Plaza
1956  Jorge Ruiz
1959  Fabio Parra Pinto
1965  José Roncancio
1967  Roland Meier
1970  Daniele Sgnaolin